FW3257 Weather Reports


time (UTC)temp
C
wind
direction
speed
KPH
gust
KPH
rain 1hr
cm
rain 24hr
cm
rain mn
cm
humidity
%
barometer
mb
20260505070039 4 229 1.6 6.4 0.00 0.23 0.00 93 1009.7
20260505064537 4 257 1.6 4.8 0.00 0.33 0.00 92 1009.4
20260505063045 5 257 1.6 12.9 0.00 0.33 0.00 92 1009.2
20260505061535 5 211 6.4 22.5 0.00 0.33 0.00 92 1008.8
20260505060032 5 236 11.3 29.0 0.00 0.33 0.00 92 1008.3
20260505054536 5 192 8.0 25.7 0.00 0.33 0.00 92 1008.0
20260505053023 5 237 9.7 22.5 0.00 0.33 0.00 93 1007.8
20260505051534 5 224 8.0 19.3 0.00 0.33 0.00 92 1007.7
20260505041508 5 268 8.0 14.5 0.00 0.38 0.00 90 1006.9
20260505040006 5 242 9.7 22.5 0.00 0.38 0.00 88 1006.5
20260505034503 6 244 11.3 24.1 0.00 0.38 0.00 88 1006.4
20260505033100 6 213 11.3 24.1 0.00 0.38 0.00 87 1006.3
20260505031604 6 246 8.0 29.0 0.00 0.38 0.00 85 1006.1
20260505024551 7 221 9.7 20.9 0.00 0.38 0.38 82 1005.7
20260505023048 7 227 9.7 24.1 0.00 0.38 0.38 80 1005.6
20260505021554 7 213 9.7 22.5 0.00 0.38 0.38 78 1005.4
20260505020053 8 217 9.7 20.9 0.00 0.38 0.38 77 1005.2
20260505014625 8 243 8.0 17.7 0.00 0.41 0.38 77 1005.2
20260505013043 8 223 6.4 14.5 0.00 0.41 0.38 76 1005.3
20260505011542 8 215 6.4 16.1 0.00 0.41 0.38 74 1005.3
20260505004541 10 237 4.8 22.5 0.00 0.53 0.38 69 1005.1
20260505003047 10 250 14.5 30.6 0.00 0.53 0.38 67 1005.1
20260505001540 10 250 12.9 32.2 0.00 0.53 0.38 64 1004.6
20260505000043 10 260 9.7 27.4 0.00 0.53 0.38 66 1004.6
20260504234534 8 202 3.2 14.5 0.00 0.86 0.38 74 1004.2
20260504233032 9 192 8.0 16.1 0.00 0.86 0.38 69 1003.8
20260504231534 10 206 6.4 24.1 0.00 0.86 0.38 59 1003.6
20260504230028 10 244 8.0 24.1 0.00 0.86 0.38 59 1003.4
20260504224532 11 253 8.0 22.5 0.00 1.57 0.38 58 1003.3
20260504223038 11 284 11.3 33.8 0.00 1.57 0.38 57 1003.3
20260504221525 11 246 14.5 32.2 0.00 1.57 0.38 57 1003.1
20260504220022 12 218 11.3 27.4 0.00 1.57 0.38 57 1002.8
20260504214534 12 251 17.7 37.0 0.00 2.03 0.38 57 1002.5
20260504213021 12 279 14.5 40.2 0.00 2.03 0.38 59 1002.3
20260504211521 12 299 16.1 41.8 0.00 2.03 0.38 60 1002.5
20260504210020 12 254 14.5 51.5 0.00 2.03 0.38 62 1002.3
20260504204515 12 162 19.3 32.2 0.00 2.31 0.38 62 1002.1
20260504203017 12 269 14.5 37.0 0.00 2.31 0.38 60 1002.0
20260504201512 12 261 17.7 43.5 0.00 2.31 0.38 59 1001.8
20260504200015 12 258 16.1 51.5 0.00 2.31 0.38 60 1001.5
20260504194509 11 301 20.9 49.9 0.00 2.31 0.38 59 1001.2
20260504193104 11 267 19.3 43.5 0.00 2.31 0.38 62 1000.8
20260504191501 11 290 22.5 43.5 0.00 2.31 0.38 65 1000.6
20260504190056 11 281 22.5 45.1 0.00 2.31 0.38 68 1000.4
20260504184553 11 230 14.5 54.7 0.00 2.36 0.38 73 1000.3
20260504183050 10 240 20.9 46.7 0.00 2.36 0.38 74 1000.1
20260504181546 10 298 19.3 41.8 0.00 2.36 0.38 76 999.9
20260504180045 10 254 30.6 51.5 0.00 2.36 0.38 77 999.9
20260504174541 9 254 12.9 46.7 0.00 2.36 0.38 81 999.4
20260504173039 8 294 17.7 51.5 0.00 2.36 0.38 83 999.2
20260504171535 8 265 22.5 46.7 0.00 2.36 0.38 84 999.0
20260504081603 3 233 17.7 40.2 0.03 2.18 0.20 99 979.9